| time (UTC) | temp F | wind direction | speed knots | gust knots | rain 1hr in | rain 24hr in | rain mn in | humidity % | barometer mb |
| 20260505004503 | 63 | 292 | 0.9 | 3.5 | 0.00 | 0.00 | 0.00 | 68 | 1010.4 |
| 20260505004009 | 63 | 9 | 0.0 | 2.6 | 0.00 | 0.00 | 0.00 | 67 | 1010.4 |
| 20260505003509 | 63 | 265 | 0.0 | 4.3 | 0.00 | 0.00 | 0.00 | 67 | 1010.4 |
| 20260505003026 | 64 | 205 | 0.9 | 4.3 | 0.00 | 0.00 | 0.00 | 66 | 1010.4 |
| 20260505002507 | 64 | 205 | 0.9 | 3.5 | 0.00 | 0.00 | 0.00 | 67 | 1010.4 |
| 20260505002011 | 65 | 9 | 0.0 | 2.6 | 0.00 | 0.00 | 0.00 | 66 | 1010.3 |
| 20260505001524 | 65 | 120 | 0.9 | 2.6 | 0.00 | 0.00 | 0.00 | 66 | 1010.3 |
| 20260505001005 | 66 | 178 | 0.0 | 1.7 | 0.00 | 0.00 | 0.00 | 65 | 1010.3 |
| 20260505000505 | 66 | 239 | 0.0 | 1.7 | 0.00 | 0.00 | 0.00 | 64 | 1010.3 |
| 20260505000003 | 66 | 68 | 0.0 | 2.6 | 0.00 | 0.00 | 0.00 | 64 | 1010.2 |
| 20260504235503 | 67 | 93 | 0.0 | 2.6 | 0.00 | 0.00 | 0.00 | 63 | 1010.2 |
| 20260504235007 | 67 | 26 | 0.0 | 10.4 | 0.00 | 0.00 | 0.00 | 63 | 1010.1 |
| 20260504234504 | 67 | 146 | 0.9 | 10.4 | 0.00 | 0.00 | 0.00 | 63 | 1010.2 |
| 20260504234003 | 68 | 237 | 1.7 | 10.4 | 0.00 | 0.00 | 0.00 | 62 | 1010.2 |
| 20260504233503 | 68 | 160 | 0.9 | 5.2 | 0.00 | 0.00 | 0.00 | 61 | 1010.2 |
| 20260504233012 | 69 | 265 | 0.9 | 6.1 | 0.00 | 0.00 | 0.00 | 61 | 1010.2 |
| 20260504232503 | 69 | 51 | 0.9 | 7.8 | 0.00 | 0.00 | 0.00 | 61 | 1010.3 |
| 20260504232004 | 69 | 265 | 0.9 | 7.8 | 0.00 | 0.00 | 0.00 | 60 | 1010.3 |
| 20260504231509 | 69 | 227 | 0.0 | 7.0 | 0.00 | 0.00 | 0.00 | 60 | 1010.3 |
| 20260504231003 | 70 | 51 | 0.9 | 9.6 | 0.00 | 0.00 | 0.00 | 60 | 1010.3 |
| 20260504230503 | 70 | 334 | 1.7 | 9.6 | 0.00 | 0.00 | 0.00 | 59 | 1010.3 |
| 20260504230006 | 70 | 93 | 0.9 | 8.7 | 0.00 | 0.00 | 0.00 | 58 | 1010.3 |
| 20260504225505 | 71 | 265 | 1.7 | 9.6 | 0.00 | 0.00 | 0.00 | 59 | 1010.3 |
| 20260504225003 | 71 | 9 | 3.5 | 9.6 | 0.00 | 0.00 | 0.00 | 58 | 1010.2 |
| 20260504224510 | 71 | 325 | 1.7 | 9.6 | 0.00 | 0.00 | 0.00 | 59 | 1010.2 |
| 20260504224004 | 71 | 190 | 2.6 | 9.6 | 0.00 | 0.00 | 0.00 | 59 | 1010.2 |
| 20260504223504 | 71 | 178 | 1.7 | 9.6 | 0.00 | 0.00 | 0.00 | 58 | 1010.2 |
| 20260504223003 | 71 | 93 | 1.7 | 7.0 | 0.00 | 0.00 | 0.00 | 59 | 1010.2 |
| 20260504222504 | 71 | 265 | 0.9 | 14.8 | 0.00 | 0.00 | 0.00 | 59 | 1010.2 |
| 20260504222005 | 71 | 360 | 2.6 | 14.8 | 0.00 | 0.00 | 0.00 | 57 | 1010.2 |
| 20260504221504 | 71 | 275 | 0.9 | 10.4 | 0.00 | 0.00 | 0.00 | 58 | 1010.2 |
| 20260504221006 | 71 | 296 | 2.6 | 10.4 | 0.00 | 0.00 | 0.00 | 57 | 1010.2 |
| 20260504220511 | 72 | 68 | 3.5 | 10.4 | 0.00 | 0.00 | 0.00 | 57 | 1010.2 |
| 20260504220016 | 72 | 265 | 2.6 | 13.9 | 0.00 | 0.00 | 0.00 | 58 | 1010.1 |
| 20260504215505 | 72 | 150 | 1.7 | 13.9 | 0.00 | 0.00 | 0.00 | 58 | 1010.2 |
| 20260504215004 | 72 | 246 | 3.5 | 11.3 | 0.00 | 0.00 | 0.00 | 57 | 1010.3 |
| 20260504214510 | 72 | 132 | 3.5 | 12.2 | 0.00 | 0.00 | 0.00 | 56 | 1010.4 |
| 20260504214007 | 72 | 105 | 3.5 | 12.2 | 0.00 | 0.00 | 0.00 | 56 | 1010.3 |
| 20260504213503 | 72 | 232 | 2.6 | 11.3 | 0.00 | 0.00 | 0.00 | 57 | 1010.4 |
| 20260504212509 | 72 | 257 | 1.7 | 16.5 | 0.00 | 0.00 | 0.00 | 57 | 1010.3 |
| 20260504212004 | 73 | 298 | 3.5 | 16.5 | 0.00 | 0.00 | 0.00 | 55 | 1010.3 |
| 20260504211503 | 73 | 255 | 4.3 | 16.5 | 0.00 | 0.00 | 0.00 | 55 | 1010.4 |
| 20260504211007 | 72 | 158 | 3.5 | 14.8 | 0.00 | 0.00 | 0.00 | 57 | 1010.4 |
| 20260504210507 | 72 | 174 | 4.3 | 13.0 | 0.00 | 0.00 | 0.00 | 56 | 1010.3 |
| 20260504210003 | 72 | 148 | 4.3 | 13.9 | 0.00 | 0.00 | 0.00 | 56 | 1010.3 |
| 20260504205504 | 73 | 291 | 2.6 | 13.9 | 0.00 | 0.00 | 0.00 | 56 | 1010.4 |
| 20260504205003 | 73 | 313 | 4.3 | 13.0 | 0.00 | 0.00 | 0.00 | 56 | 1010.3 |
| 20260504204524 | 73 | 93 | 1.7 | 11.3 | 0.00 | 0.00 | 0.00 | 55 | 1010.3 |
| 20260504204004 | 73 | 314 | 3.5 | 13.0 | 0.00 | 0.00 | 0.00 | 58 | 1010.4 |
| 20260504203504 | 73 | 111 | 3.5 | 13.0 | 0.00 | 0.00 | 0.00 | 56 | 1010.3 |
| 20260504203012 | 73 | 261 | 3.5 | 9.6 | 0.00 | 0.00 | 0.00 | 58 | 1010.4 |
| 20260504202509 | 72 | 275 | 2.6 | 13.0 | 0.00 | 0.00 | 0.00 | 60 | 1010.5 |
| 20260504202003 | 72 | 183 | 3.5 | 13.9 | 0.00 | 0.00 | 0.00 | 56 | 1010.5 |
| 20260504201508 | 72 | 271 | 5.2 | 14.8 | 0.00 | 0.00 | 0.00 | 58 | 1010.8 |
| 20260504201008 | 72 | 221 | 4.3 | 14.8 | 0.00 | 0.00 | 0.00 | 59 | 1010.8 |
| 20260504200504 | 72 | 249 | 6.1 | 9.6 | 0.00 | 0.00 | 0.00 | 59 | 1011.1 |
| 20260504200007 | 72 | 146 | 6.1 | 13.0 | 0.00 | 0.00 | 0.00 | 59 | 1011.0 |
| 20260504195507 | 72 | 243 | 3.5 | 14.8 | 0.00 | 0.00 | 0.00 | 57 | 1011.0 |
| 20260504195008 | 72 | 275 | 5.2 | 14.8 | 0.00 | 0.00 | 0.00 | 56 | 1011.2 |
| 20260504194504 | 72 | 68 | 3.5 | 10.4 | 0.00 | 0.00 | 0.00 | 60 | 1011.2 |
| 20260504194005 | 72 | 360 | 2.6 | 10.4 | 0.00 | 0.00 | 0.00 | 60 | 1011.4 |
| 20260504193506 | 71 | 101 | 3.5 | 10.4 | 0.00 | 0.00 | 0.00 | 58 | 1011.4 |
| 20260504193026 | 71 | 221 | 2.6 | 10.4 | 0.00 | 0.00 | 0.00 | 57 | 1011.5 |
| 20260504192506 | 71 | 133 | 3.5 | 16.5 | 0.00 | 0.00 | 0.00 | 58 | 1011.5 |
| 20260504192010 | 71 | 201 | 6.1 | 16.5 | 0.00 | 0.00 | 0.00 | 58 | 1011.6 |
| 20260504191527 | 71 | 254 | 4.3 | 13.0 | 0.00 | 0.00 | 0.00 | 57 | 1011.7 |
| 20260504191002 | 72 | 225 | 3.5 | 13.9 | 0.00 | 0.00 | 0.00 | 62 | 1011.8 |
| 20260504190503 | 71 | 57 | 2.6 | 13.9 | 0.00 | 0.00 | 0.00 | 60 | 1011.8 |
| 20260504190011 | 71 | 117 | 2.6 | 14.8 | 0.00 | 0.00 | 0.00 | 63 | 1011.8 |
| 20260504185510 | 71 | 150 | 2.6 | 14.8 | 0.00 | 0.00 | 0.00 | 60 | 1011.8 |
| 20260504185003 | 71 | 186 | 3.5 | 15.6 | 0.00 | 0.00 | 0.00 | 59 | 1011.8 |
| 20260504184509 | 71 | 160 | 6.1 | 15.6 | 0.00 | 0.00 | 0.00 | 58 | 1011.9 |
| 20260504184011 | 71 | 137 | 2.6 | 13.0 | 0.00 | 0.00 | 0.00 | 59 | 1011.9 |
| 20260504183511 | 71 | 210 | 2.6 | 10.4 | 0.00 | 0.00 | 0.00 | 60 | 1011.9 |
| 20260504183008 | 71 | 153 | 2.6 | 11.3 | 0.00 | 0.00 | 0.00 | 60 | 1011.9 |
| 20260504182508 | 71 | 185 | 3.5 | 11.3 | 0.00 | 0.00 | 0.00 | 59 | 1011.9 |
| 20260504182011 | 71 | 265 | 4.3 | 11.3 | 0.00 | 0.00 | 0.00 | 59 | 1012.1 |
| 20260504181508 | 71 | 51 | 1.7 | 12.2 | 0.00 | 0.00 | 0.00 | 61 | 1012.3 |
| 20260504181001 | 71 | 265 | 4.3 | 12.2 | 0.00 | 0.00 | 0.00 | 57 | 1012.2 |
| 20260504180503 | 71 | 330 | 2.6 | 10.4 | 0.00 | 0.00 | 0.00 | 59 | 1012.4 |
| 20260504180008 | 71 | 214 | 3.5 | 10.4 | 0.00 | 0.00 | 0.00 | 62 | 1012.5 |
| 20260504175504 | 71 | 250 | 1.7 | 14.8 | 0.00 | 0.00 | 0.00 | 64 | 1012.6 |
| 20260504175005 | 70 | 259 | 3.5 | 14.8 | 0.00 | 0.00 | 0.00 | 65 | 1012.5 |
| 20260504174508 | 70 | 239 | 1.7 | 10.4 | 0.00 | 0.00 | 0.00 | 61 | 1012.7 |
| 20260504174006 | 70 | 248 | 2.6 | 10.4 | 0.00 | 0.00 | 0.00 | 60 | 1012.8 |
| 20260504173509 | 69 | 293 | 2.6 | 13.0 | 0.00 | 0.00 | 0.00 | 68 | 1012.8 |
| 20260504173005 | 69 | 254 | 4.3 | 13.9 | 0.00 | 0.00 | 0.00 | 60 | 1012.9 |
| 20260504172502 | 70 | 265 | 3.5 | 13.9 | 0.00 | 0.00 | 0.00 | 63 | 1013.0 |
| 20260504172010 | 69 | 266 | 1.7 | 13.0 | 0.00 | 0.00 | 0.00 | 63 | 1012.9 |
| 20260504171501 | 69 | 254 | 3.5 | 13.0 | 0.00 | 0.00 | 0.00 | 59 | 1013.0 |
| 20260504171003 | 69 | 178 | 3.5 | 13.0 | 0.00 | 0.00 | 0.00 | 63 | 1013.2 |
| 20260504170503 | 69 | 120 | 4.3 | 13.0 | 0.00 | 0.00 | 0.00 | 63 | 1013.3 |
| 20260504151013 | 65 | 305 | 5.2 | 12.2 | 0.00 | 0.00 | 0.00 | 63 | 1014.3 |
| 20260504150503 | 65 | 312 | 3.5 | 14.8 | 0.00 | 0.00 | 0.00 | 65 | 1014.3 |
| 20260504141010 | 62 | 265 | 3.5 | 12.2 | 0.00 | 0.00 | 0.00 | 73 | 1014.5 |
| 20260504140510 | 61 | 265 | 4.3 | 12.2 | 0.00 | 0.00 | 0.00 | 72 | 1014.5 |
| 20260504130512 | 54 | 257 | 2.6 | 8.7 | 0.00 | 0.00 | 0.00 | 81 | 1014.9 |
| 20260504110503 | 39 | 9 | 0.0 | 0.9 | 0.00 | 0.00 | 0.00 | 88 | 1015.0 |
| 20260504100503 | 40 | 51 | 0.0 | 0.9 | 0.00 | 0.00 | 0.00 | 86 | 1015.3 |
| 20260504081005 | 40 | 9 | 0.0 | 2.6 | 0.00 | 0.00 | 0.00 | 83 | 1015.4 |
| 20260504080502 | 40 | 9 | 0.0 | 3.5 | 0.00 | 0.00 | 0.00 | 83 | 1015.3 |
| 20260504050510 | 44 | 51 | 0.0 | 2.6 | 0.00 | 0.00 | 0.00 | 75 | 1015.4 |
| 20260504050010 | 44 | 250 | 0.9 | 2.6 | 0.00 | 0.00 | 0.00 | 75 | 1015.3 |
| 20260504045507 | 44 | 265 | 0.0 | 2.6 | 0.00 | 0.00 | 0.00 | 75 | 1015.4 |
| 20260504045009 | 44 | 250 | 0.9 | 2.6 | 0.00 | 0.00 | 0.00 | 75 | 1015.4 |
| 20260504041002 | 44 | 265 | 0.0 | 2.6 | 0.00 | 0.00 | 0.00 | 75 | 1015.0 |
| 20260504040504 | 44 | 265 | 0.0 | 2.6 | 0.00 | 0.00 | 0.00 | 75 | 1015.0 |
| 20260504040003 | 44 | 325 | 0.9 | 2.6 | 0.00 | 0.00 | 0.00 | 75 | 1015.0 |
| 20260504035503 | 44 | 254 | 0.9 | 2.6 | 0.00 | 0.00 | 0.00 | 75 | 1015.0 |
| 20260504035003 | 43 | 309 | 0.9 | 2.6 | 0.00 | 0.00 | 0.00 | 76 | 1015.0 |
| 20260504034502 | 43 | 254 | 0.9 | 1.7 | 0.00 | 0.00 | 0.00 | 76 | 1015.0 |
| 20260504034002 | 43 | 279 | 0.0 | 1.7 | 0.00 | 0.00 | 0.00 | 76 | 1014.9 |
| 20260504033502 | 43 | 254 | 0.0 | 1.7 | 0.00 | 0.00 | 0.00 | 76 | 1014.9 |
| 20260504033003 | 43 | 265 | 0.9 | 1.7 | 0.00 | 0.00 | 0.00 | 77 | 1014.8 |
| 20260504032503 | 43 | 298 | 0.0 | 1.7 | 0.00 | 0.00 | 0.00 | 77 | 1014.7 |
| 20260504032002 | 43 | 265 | 0.0 | 1.7 | 0.00 | 0.00 | 0.00 | 77 | 1014.8 |
| 20260504031501 | 43 | 309 | 0.9 | 1.7 | 0.00 | 0.00 | 0.00 | 76 | 1014.8 |
| 20260504031004 | 43 | 265 | 0.9 | 1.7 | 0.00 | 0.00 | 0.00 | 76 | 1014.7 |
| 20260504030507 | 43 | 292 | 0.0 | 1.7 | 0.00 | 0.00 | 0.00 | 76 | 1014.7 |
| 20260504030003 | 43 | 265 | 0.0 | 0.9 | 0.00 | 0.00 | 0.00 | 75 | 1014.7 |
| 20260504025504 | 44 | 178 | 0.0 | 0.9 | 0.00 | 0.00 | 0.00 | 75 | 1014.6 |
| 20260504025002 | 44 | 93 | 0.0 | 0.9 | 0.00 | 0.00 | 0.00 | 75 | 1014.6 |
| 20260504024503 | 44 | 309 | 0.0 | 0.9 | 0.00 | 0.00 | 0.00 | 75 | 1014.7 |
| 20260504024008 | 44 | 265 | 0.0 | 0.9 | 0.00 | 0.00 | 0.00 | 74 | 1014.6 |
| 20260504023503 | 45 | 51 | 0.0 | 0.9 | 0.00 | 0.00 | 0.00 | 75 | 1014.7 |
| 20260504023003 | 45 | 51 | 0.0 | 0.9 | 0.00 | 0.00 | 0.00 | 74 | 1014.7 |
| 20260504022502 | 45 | 51 | 0.0 | 0.9 | 0.00 | 0.00 | 0.00 | 74 | 1014.7 |
| 20260504022002 | 45 | 9 | 0.0 | 0.9 | 0.00 | 0.00 | 0.00 | 73 | 1014.7 |
| 20260504021503 | 46 | 51 | 0.0 | 0.9 | 0.00 | 0.00 | 0.00 | 73 | 1014.7 |
| 20260504021001 | 46 | 9 | 0.0 | 0.9 | 0.00 | 0.00 | 0.00 | 73 | 1014.7 |
| 20260504020501 | 46 | 51 | 0.0 | 1.7 | 0.00 | 0.00 | 0.00 | 73 | 1014.8 |
| 20260504020002 | 46 | 265 | 0.0 | 1.7 | 0.00 | 0.00 | 0.00 | 73 | 1014.7 |
| 20260504015503 | 47 | 325 | 0.0 | 1.7 | 0.00 | 0.00 | 0.00 | 72 | 1014.8 |
| 20260504015004 | 47 | 51 | 0.0 | 0.9 | 0.00 | 0.00 | 0.00 | 71 | 1014.7 |
| 20260504014505 | 47 | 309 | 0.0 | 1.7 | 0.00 | 0.00 | 0.00 | 71 | 1014.7 |
| 20260504014004 | 48 | 9 | 0.0 | 1.7 | 0.00 | 0.00 | 0.00 | 70 | 1014.6 |
| 20260504013502 | 48 | 9 | 0.0 | 0.9 | 0.00 | 0.00 | 0.00 | 70 | 1014.6 |
| 20260504013004 | 48 | 51 | 0.0 | 0.9 | 0.00 | 0.00 | 0.00 | 70 | 1014.6 |
| 20260504012502 | 49 | 34 | 0.0 | 0.9 | 0.00 | 0.00 | 0.00 | 69 | 1014.6 |
| 20260504012003 | 49 | 93 | 0.0 | 1.7 | 0.00 | 0.00 | 0.00 | 69 | 1014.5 |
| 20260504011510 | 49 | 265 | 0.0 | 1.7 | 0.00 | 0.00 | 0.00 | 69 | 1014.5 |
| 20260504011001 | 50 | 265 | 0.0 | 1.7 | 0.00 | 0.00 | 0.00 | 68 | 1014.4 |
| 20260504010503 | 50 | 309 | 0.0 | 1.7 | 0.00 | 0.00 | 0.00 | 68 | 1014.4 |
| 20260504010003 | 51 | 265 | 0.0 | 1.7 | 0.00 | 0.00 | 0.00 | 67 | 1014.4 |
| 20260504005503 | 51 | 338 | 0.0 | 1.7 | 0.00 | 0.00 | 0.00 | 67 | 1014.3 |
| 20260504005004 | 51 | 265 | 0.9 | 1.7 | 0.00 | 0.00 | 0.00 | 66 | 1014.2 |